| time (UTC) | temp F | wind direction | speed MPH | gust MPH | rain 1hr in | rain 24hr in | rain mn in | humidity % | barometer mb |
| 20260831210051 | 58 | 0 | 0.0 | 0.0 | 0.00 | 0.29 | 0.22 | 91 | 1024.3 |
| 20260831204550 | 58 | 0 | 0.0 | 0.0 | 0.00 | 0.29 | 0.22 | 91 | 1024.1 |
| 20260831203044 | 58 | 0 | 0.0 | 0.0 | 0.00 | 0.29 | 0.22 | 92 | 1024.0 |
| 20260831201550 | 57 | 0 | 0.0 | 0.0 | 0.00 | 0.29 | 0.22 | 93 | 1023.8 |
| 20260831200048 | 57 | 0 | 0.0 | 0.0 | 0.00 | 0.29 | 0.22 | 93 | 1023.7 |
| 20260831194615 | 57 | 0 | 0.0 | 0.0 | 0.00 | 0.29 | 0.22 | 93 | 1023.7 |
| 20260831193053 | 58 | 0 | 0.0 | 0.0 | 0.00 | 0.29 | 0.22 | 93 | 1023.6 |
| 20260831191548 | 58 | 0 | 0.0 | 0.0 | 0.00 | 0.29 | 0.22 | 93 | 1023.6 |
| 20260831184544 | 58 | 0 | 0.0 | 0.0 | 0.00 | 0.29 | 0.22 | 93 | 1022.9 |
| 20260831183051 | 58 | 0 | 0.0 | 0.0 | 0.00 | 0.29 | 0.22 | 93 | 1022.6 |
| 20260831181551 | 59 | 282 | 1.0 | 7.0 | 0.01 | 0.29 | 0.22 | 92 | 1022.1 |
| 20260831180050 | 59 | 282 | 2.0 | 8.0 | 0.03 | 0.29 | 0.22 | 92 | 1021.9 |
| 20260831174554 | 60 | 279 | 0.0 | 8.0 | 0.03 | 0.29 | 0.22 | 90 | 1021.3 |
| 20260831173053 | 60 | 296 | 1.0 | 11.0 | 0.03 | 0.29 | 0.22 | 88 | 1021.3 |
| 20260831171548 | 62 | 360 | 5.0 | 10.0 | 0.02 | 0.27 | 0.20 | 85 | 1020.9 |
| 20260831170056 | 62 | 0 | 0.0 | 0.0 | 0.00 | 0.25 | 0.18 | 86 | 1020.9 |
| 20260831164600 | 63 | 0 | 0.0 | 0.0 | 0.02 | 0.25 | 0.18 | 86 | 1020.5 |
| 20260831163052 | 64 | 0 | 1.0 | 6.0 | 0.07 | 0.25 | 0.18 | 82 | 1020.0 |
| 20260831161549 | 65 | 0 | 0.0 | 9.0 | 0.07 | 0.25 | 0.18 | 76 | 1019.9 |
| 20260831160056 | 66 | 0 | 1.0 | 10.0 | 0.07 | 0.25 | 0.18 | 75 | 1019.9 |
| 20260831154654 | 68 | 360 | 8.0 | 14.0 | 0.03 | 0.22 | 0.14 | 68 | 1019.8 |
| 20260831153050 | 68 | 324 | 6.0 | 14.0 | 0.00 | 0.18 | 0.11 | 69 | 1018.8 |
| 20260831151552 | 68 | 293 | 3.0 | 12.0 | 0.00 | 0.18 | 0.11 | 71 | 1018.7 |
| 20260831150055 | 71 | 259 | 4.0 | 11.0 | 0.00 | 0.18 | 0.11 | 67 | 1018.8 |
| 20260831144547 | 72 | 0 | 2.0 | 13.0 | 0.00 | 0.18 | 0.11 | 63 | 1018.5 |
| 20260831143105 | 72 | 325 | 6.0 | 12.0 | 0.00 | 0.18 | 0.11 | 63 | 1018.5 |
| 20260831141610 | 73 | 266 | 3.0 | 11.0 | 0.00 | 0.18 | 0.11 | 63 | 1018.7 |
| 20260831140055 | 73 | 256 | 1.0 | 9.0 | 0.00 | 0.18 | 0.11 | 63 | 1018.7 |
| 20260831134546 | 73 | 269 | 5.0 | 11.0 | 0.00 | 0.18 | 0.11 | 61 | 1019.1 |
| 20260831133050 | 75 | 0 | 1.0 | 9.0 | 0.00 | 0.18 | 0.11 | 58 | 1019.0 |
| 20260831131548 | 74 | 278 | 3.0 | 11.0 | 0.00 | 0.18 | 0.11 | 60 | 1019.3 |
| 20260831130054 | 74 | 263 | 3.0 | 10.0 | 0.00 | 0.18 | 0.11 | 58 | 1019.3 |
| 20260831124556 | 73 | 360 | 4.0 | 11.0 | 0.00 | 0.18 | 0.11 | 59 | 1019.4 |
| 20260831123049 | 72 | 325 | 6.0 | 12.0 | 0.00 | 0.18 | 0.11 | 58 | 1019.6 |
| 20260831121543 | 72 | 300 | 6.0 | 12.0 | 0.00 | 0.18 | 0.11 | 58 | 1019.5 |
| 20260831120053 | 72 | 290 | 5.0 | 12.0 | 0.00 | 0.18 | 0.11 | 60 | 1019.5 |
| 20260831114550 | 71 | 316 | 6.0 | 12.0 | 0.00 | 0.18 | 0.11 | 62 | 1019.7 |
| 20260831113047 | 71 | 279 | 4.0 | 11.0 | 0.00 | 0.18 | 0.11 | 66 | 1019.9 |
| 20260831111550 | 71 | 303 | 4.0 | 10.0 | 0.00 | 0.18 | 0.11 | 65 | 1020.0 |
| 20260831110056 | 70 | 314 | 3.0 | 9.0 | 0.00 | 0.17 | 0.10 | 65 | 1020.2 |
| 20260831104554 | 69 | 276 | 3.0 | 10.0 | 0.00 | 0.17 | 0.10 | 71 | 1020.3 |
| 20260831103050 | 68 | 255 | 1.0 | 10.0 | 0.00 | 0.17 | 0.10 | 77 | 1020.4 |
| 20260831101607 | 67 | 273 | 1.0 | 8.0 | 0.00 | 0.17 | 0.10 | 81 | 1020.5 |
| 20260831100056 | 66 | 0 | 0.0 | 4.0 | 0.00 | 0.17 | 0.10 | 83 | 1020.7 |
| 20260831094552 | 65 | 0 | 0.0 | 1.0 | 0.00 | 0.17 | 0.10 | 85 | 1021.1 |
| 20260831093053 | 64 | 0 | 0.0 | 0.0 | 0.00 | 0.17 | 0.10 | 88 | 1021.3 |
| 20260831091540 | 63 | 0 | 0.0 | 0.0 | 0.00 | 0.17 | 0.10 | 90 | 1021.4 |
| 20260831090104 | 63 | 0 | 0.0 | 0.0 | 0.00 | 0.17 | 0.10 | 91 | 1021.5 |
| 20260831084549 | 62 | 0 | 0.0 | 0.0 | 0.00 | 0.17 | 0.10 | 92 | 1021.6 |
| 20260831083046 | 62 | 0 | 0.0 | 1.0 | 0.00 | 0.17 | 0.10 | 92 | 1021.7 |
| 20260831081550 | 62 | 0 | 0.0 | 0.0 | 0.00 | 0.17 | 0.10 | 91 | 1021.6 |
| 20260831080051 | 62 | 0 | 0.0 | 0.0 | 0.00 | 0.17 | 0.10 | 90 | 1021.5 |
| 20260831074550 | 61 | 0 | 0.0 | 0.0 | 0.00 | 0.17 | 0.10 | 90 | 1021.5 |
| 20260831073047 | 61 | 0 | 0.0 | 0.0 | 0.00 | 0.17 | 0.10 | 90 | 1021.3 |
| 20260831071551 | 60 | 0 | 0.0 | 0.0 | 0.00 | 0.17 | 0.10 | 91 | 1021.6 |
| 20260831070050 | 60 | 0 | 0.0 | 0.0 | 0.00 | 0.17 | 0.10 | 91 | 1021.4 |
| 20260831064551 | 59 | 0 | 0.0 | 1.0 | 0.00 | 0.17 | 0.10 | 91 | 1021.3 |
| 20260831063053 | 59 | 0 | 0.0 | 0.0 | 0.00 | 0.17 | 0.10 | 92 | 1021.2 |
| 20260831061559 | 59 | 0 | 0.0 | 0.0 | 0.00 | 0.17 | 0.10 | 92 | 1021.3 |
| 20260831060104 | 58 | 0 | 0.0 | 0.0 | 0.00 | 0.17 | 0.10 | 92 | 1021.2 |
| 20260831054553 | 59 | 0 | 0.0 | 0.0 | 0.00 | 0.17 | 0.10 | 95 | 1021.2 |
| 20260831053050 | 58 | 0 | 0.0 | 0.0 | 0.00 | 0.16 | 0.09 | 92 | 1021.4 |
| 20260831051559 | 58 | 0 | 0.0 | 0.0 | 0.00 | 0.16 | 0.09 | 91 | 1021.5 |
| 20260831050057 | 58 | 0 | 0.0 | 0.0 | 0.00 | 0.16 | 0.09 | 90 | 1021.2 |
| 20260831044550 | 58 | 0 | 0.0 | 0.0 | 0.00 | 0.16 | 0.09 | 90 | 1021.1 |
| 20260831043051 | 58 | 0 | 0.0 | 0.0 | 0.00 | 0.16 | 0.09 | 91 | 1021.2 |
| 20260831041600 | 58 | 0 | 0.0 | 0.0 | 0.00 | 0.16 | 0.09 | 91 | 1021.2 |
| 20260831040053 | 58 | 0 | 0.0 | 0.0 | 0.00 | 0.16 | 0.09 | 91 | 1021.0 |
| 20260831034549 | 58 | 0 | 0.0 | 0.0 | 0.00 | 0.16 | 0.09 | 90 | 1021.4 |
| 20260831033044 | 58 | 0 | 0.0 | 0.0 | 0.00 | 0.16 | 0.09 | 90 | 1021.0 |
| 20260831031550 | 58 | 0 | 0.0 | 0.0 | 0.00 | 0.16 | 0.09 | 89 | 1020.9 |
| 20260831030107 | 59 | 0 | 0.0 | 0.0 | 0.08 | 0.16 | 0.09 | 88 | 1020.7 |
| 20260831024611 | 60 | 0 | 0.0 | 0.0 | 0.08 | 0.16 | 0.09 | 89 | 1020.5 |
| 20260831023054 | 60 | 0 | 0.0 | 10.0 | 0.08 | 0.16 | 0.09 | 88 | 1020.5 |
| 20260831021550 | 61 | 324 | 4.0 | 13.0 | 0.07 | 0.15 | 0.08 | 92 | 1020.7 |
| 20260831020049 | 61 | 277 | 3.0 | 14.0 | 0.00 | 0.07 | 0.00 | 92 | 1021.1 |
| 20260831014552 | 60 | 0 | 0.0 | 1.0 | 0.00 | 0.07 | 0.00 | 91 | 1020.5 |
| 20260831013110 | 60 | 0 | 0.0 | 0.0 | 0.00 | 0.07 | 0.00 | 91 | 1020.1 |
| 20260831011551 | 61 | 0 | 0.0 | 0.0 | 0.00 | 0.07 | 0.00 | 91 | 1020.1 |
| 20260831010054 | 61 | 0 | 0.0 | 0.0 | 0.00 | 0.07 | 0.00 | 91 | 1020.1 |
| 20260831004551 | 61 | 0 | 0.0 | 0.0 | 0.00 | 0.07 | 0.00 | 92 | 1020.3 |
| 20260831003048 | 61 | 0 | 0.0 | 0.0 | 0.00 | 0.07 | 0.00 | 91 | 1020.4 |
| 20260831001546 | 61 | 0 | 0.0 | 0.0 | 0.00 | 0.07 | 0.00 | 91 | 1020.6 |
| 20260831000055 | 62 | 0 | 0.0 | 0.0 | 0.00 | 0.07 | 0.00 | 91 | 1020.7 |
| 20260830234601 | 62 | 0 | 0.0 | 0.0 | 0.00 | 0.07 | 0.00 | 91 | 1020.9 |
| 20260830233048 | 62 | 0 | 0.0 | 0.0 | 0.00 | 0.07 | 0.00 | 91 | 1021.3 |
| 20260830231554 | 62 | 0 | 0.0 | 0.0 | 0.00 | 0.07 | 0.00 | 90 | 1021.1 |
| 20260830230051 | 62 | 0 | 0.0 | 0.0 | 0.00 | 0.07 | 0.00 | 90 | 1021.2 |
| 20260830224554 | 62 | 0 | 0.0 | 0.0 | 0.03 | 0.07 | 0.00 | 90 | 1021.0 |
| 20260830223049 | 62 | 0 | 0.0 | 0.0 | 0.05 | 0.07 | 0.00 | 89 | 1021.0 |
| 20260830221551 | 62 | 0 | 0.0 | 3.0 | 0.07 | 0.07 | 0.00 | 89 | 1020.9 |
| 20260830220052 | 63 | 204 | 0.0 | 8.0 | 0.07 | 0.07 | 0.00 | 87 | 1020.7 |
| 20260830214547 | 63 | 0 | 0.0 | 2.0 | 0.03 | 0.03 | 0.03 | 85 | 1021.2 |
| 20260830213057 | 65 | 0 | 0.0 | 4.0 | 0.02 | 0.02 | 0.02 | 81 | 1020.9 |
| 20260830211552 | 66 | 0 | 0.0 | 1.0 | 0.00 | 0.00 | 0.00 | 77 | 1020.8 |